DW9636 Weather Reports


Display with metric or nautical units.
time (UTC)temp
F
wind
direction
speed
MPH
gust
MPH
rain 1hr
in
rain 24hr
in
rain mn
in
humidity
%
barometer
mb
20260904123049 34 188 0.0 0.0 0.00 0.00 0.00 91 1010.2
20260904121546 35 188 0.0 0.0 0.00 0.00 0.00 91 1010.1
20260904120051 36 188 0.0 0.0 0.00 0.00 0.00 92 1010.0
20260904114541 37 188 0.0 0.0 0.00 0.00 0.00 92 1010.0
20260904113040 37 188 0.0 0.0 0.00 0.00 0.00 91 1009.9
20260904111537 37 188 0.0 0.0 0.00 0.00 0.00 91 1009.8
20260904110037 38 188 0.0 0.0 0.00 0.00 0.00 92 1009.6
20260904104536 38 188 0.0 0.0 0.00 0.00 0.00 91 1009.5
20260904103034 38 188 0.0 0.0 0.00 0.00 0.00 91 1009.6
20260904101533 38 188 0.0 0.0 0.00 0.00 0.00 90 1009.5
20260904100039 38 188 0.0 0.0 0.00 0.00 0.00 89 1009.5
20260904094529 39 188 0.0 0.0 0.00 0.00 0.00 89 1009.5
20260904093050 40 188 0.0 0.0 0.00 0.00 0.00 90 1009.6
20260904091526 40 188 0.0 0.0 0.00 0.00 0.00 90 1009.6
20260904090025 40 188 0.0 0.0 0.00 0.00 0.00 91 1009.6
20260904084524 40 188 0.0 0.0 0.00 0.00 0.00 91 1009.7
20260904083023 40 188 0.0 0.0 0.00 0.00 0.00 91 1009.7
20260904081521 40 188 0.0 0.0 0.00 0.00 0.00 90 1009.5
20260904080019 41 188 0.0 0.0 0.00 0.00 0.00 89 1009.2
20260904074517 41 188 0.0 0.0 0.00 0.00 0.00 89 1009.1
20260904073034 42 188 0.0 0.0 0.00 0.00 0.00 88 1008.9
20260904071512 42 188 0.0 0.0 0.00 0.00 0.00 87 1009.0
20260904070009 44 188 0.0 0.0 0.00 0.00 0.00 86 1008.9
20260904064516 44 188 0.0 0.0 0.00 0.00 0.00 86 1008.8
20260904063007 44 188 0.0 0.0 0.00 0.00 0.00 85 1008.9
20260904061510 45 188 0.0 0.0 0.00 0.00 0.00 84 1008.9
20260904060008 45 188 0.0 0.0 0.00 0.00 0.00 85 1009.0
20260904054509 45 188 0.0 0.0 0.00 0.00 0.00 84 1009.0
20260904053005 45 188 0.0 0.0 0.00 0.00 0.00 83 1009.0
20260904051508 45 188 0.0 0.0 0.00 0.00 0.00 83 1009.1
20260904050004 45 188 0.0 0.0 0.00 0.00 0.00 82 1009.2
20260904044507 46 188 0.0 0.0 0.00 0.00 0.00 81 1009.4
20260904043003 46 188 0.0 0.0 0.00 0.00 0.00 80 1009.3
20260904041503 46 188 0.0 0.0 0.00 0.00 0.00 78 1009.0
20260904040003 47 188 0.0 0.0 0.00 0.00 0.00 77 1008.9
20260904034503 47 188 0.0 0.0 0.00 0.00 0.00 76 1008.7
20260904033001 48 188 0.0 0.0 0.00 0.00 0.00 74 1008.4
20260904031502 48 188 0.0 0.0 0.00 0.00 0.00 72 1008.2
20260904030002 49 188 0.0 0.0 0.00 0.00 0.00 69 1008.3
20260904024502 50 188 0.0 0.0 0.00 0.00 0.00 64 1008.2
20260904023100 51 188 0.0 0.0 0.00 0.00 0.00 60 1008.2
20260904021600 51 188 0.0 0.0 0.00 0.00 0.00 57 1008.0
20260904020116 52 188 0.0 0.0 0.00 0.00 0.00 55 1008.0
20260904014647 52 188 0.0 0.0 0.00 0.00 0.00 53 1007.8
20260904013108 53 188 0.0 0.0 0.00 0.00 0.00 50 1007.7
20260904011606 54 186 0.0 0.0 0.00 0.00 0.00 47 1007.7
20260904010100 55 200 1.0 0.0 0.00 0.00 0.00 47 1007.7
20260904004558 54 184 1.0 0.0 0.00 0.00 0.00 54 1007.6
20260904003107 53 205 0.0 0.0 0.00 0.00 0.00 57 1007.7
20260904001555 54 192 1.0 0.0 0.00 0.00 0.00 54 1007.7
20260904000054 55 178 1.0 0.0 0.00 0.00 0.00 55 1007.8
20260903234553 56 184 1.0 0.0 0.00 0.00 0.00 55 1007.8
20260903233052 55 180 1.0 0.0 0.00 0.00 0.00 57 1008.0
20260903231551 55 204 1.0 0.0 0.00 0.00 0.00 55 1007.8
20260903230101 54 153 1.0 0.0 0.00 0.00 0.00 58 1008.0
20260903224547 53 190 0.0 0.0 0.00 0.00 0.00 60 1008.3
20260903223040 52 203 0.0 0.0 0.00 0.00 0.00 60 1008.5
20260903221540 52 192 0.0 0.0 0.00 0.00 0.00 60 1008.6
20260903220041 51 193 1.0 0.0 0.00 0.00 0.00 61 1008.6
20260903214544 51 187 1.0 0.0 0.00 0.00 0.00 59 1008.9
20260903213043 52 193 0.0 0.0 0.00 0.00 0.00 61 1008.8
20260903211536 52 181 0.0 0.0 0.00 0.00 0.00 66 1008.9
20260903210034 51 180 0.0 0.0 0.00 0.00 0.00 70 1008.9
20260903204533 51 180 0.0 0.0 0.00 0.00 0.00 72 1008.8
20260903203030 51 180 0.0 0.0 0.00 0.00 0.00 77 1008.6
20260903201533 50 180 0.0 0.0 0.00 0.00 0.00 81 1008.6
20260903200027 50 180 0.0 0.0 0.00 0.00 0.00 82 1009.0
20260903194527 49 180 0.0 0.0 0.00 0.00 0.00 84 1009.2
20260903193022 48 180 0.0 0.0 0.00 0.00 0.00 86 1009.2
20260903191518 47 180 0.0 0.0 0.00 0.00 0.00 88 1009.4
20260903190016 46 180 0.0 0.0 0.00 0.00 0.00 90 1009.6
20260903184513 46 180 0.0 0.0 0.00 0.00 0.00 92 1009.6
20260903183011 45 180 0.0 0.0 0.00 0.00 0.00 93 1009.7
20260903181510 45 180 0.0 0.0 0.00 0.00 0.00 94 1009.8
20260903180034 45 180 0.0 0.0 0.00 0.00 0.00 95 1009.8
20260903174509 45 180 0.0 0.0 0.00 0.00 0.00 95 1009.7
20260903173007 45 180 0.0 0.0 0.00 0.00 0.00 96 1009.8
20260903171510 44 180 0.0 0.0 0.00 0.00 0.00 96 1009.7
20260903170008 44 180 0.0 0.0 0.00 0.00 0.00 96 1009.8
20260903164506 43 180 0.0 0.0 0.00 0.00 0.00 96 1009.9
20260903163008 43 180 0.0 0.0 0.00 0.00 0.00 96 1010.0
20260903161505 42 180 0.0 0.0 0.00 0.00 0.00 96 1009.9
20260903160004 42 180 0.0 0.0 0.00 0.00 0.00 96 1010.0
20260903154507 41 180 0.0 0.0 0.00 0.00 0.00 96 1010.0
20260903153002 41 180 0.0 0.0 0.00 0.00 0.00 96 1009.8
20260903151501 41 180 0.0 0.0 0.00 0.00 0.00 96 1009.9
20260903144600 40 180 0.0 0.0 0.00 0.00 0.00 96 1009.7
20260903143100 39 180 0.0 0.0 0.00 0.00 0.00 95 1009.6
20260903141557 39 180 0.0 0.0 0.00 0.00 0.00 95 1009.6
20260903140100 39 180 0.0 0.0 0.00 0.00 0.00 95 1009.4
20260903134555 39 180 0.0 0.0 0.00 0.00 0.00 95 1009.4
20260903133056 38 180 0.0 0.0 0.00 0.00 0.00 95 1009.4
20260903131600 38 180 0.0 0.0 0.00 0.00 0.00 95 1009.4
20260903130057 38 180 0.0 0.0 0.00 0.00 0.00 95 1009.3
20260903124552 38 180 0.0 0.0 0.00 0.00 0.00 95 1009.2